Weather History for Leuchars, United Kingdom

Change the Weather History Date:

Wednesday, April 16, 2014

  Actual Average Record
Temperature  
Mean Temperature 48 °F -  
Max Temperature 57 °F 52 °F 60 °F (2007)
Min Temperature 39 °F 40 °F 28 °F (1998)
Degree Days  
Heating Degree Days 17    
Moisture  
Dew Point 38 °F    
Average Humidity 59    
Maximum Humidity 81    
Minimum Humidity 36    
Precipitation  
Precipitation 0.00 in - - ()
Sea Level Pressure  
Sea Level Pressure 30.15 in    
Wind  
Wind Speed 9 mph ()    
Max Wind Speed 22 mph    
Max Gust Speed -    
Visibility 12.6 miles    
Events Rain    
Averages and records for this station are not official NWS values.
T = Trace of Precipitation, MM = Missing Value Source: Averaged Metar Reports

Daily Weather History Graph

Daily Weather History Graph

Search for Another Location

Airport:

Trip Planner

Search our weather history database for the weather conditions in past years. The results will help you decide how hot, cold, wet, or windy it might be!

Date:

Astronomy

Apr. 16, 2014 Rise Set
Actual Time 6:02 AM BST 8:21 PM BST
Civil Twilight 5:22 AM BST 9:02 PM BST
Nautical Twilight 4:29 AM BST 9:55 PM BST
Astronomical Twilight 3:25 AM BST 11:00 PM BST
Moon 10:05 PM BST (4/16) 6:31 AM BST (4/16)
Length of Visible Light 15h 40m
Length of Day
14h 18m
Full, 99% of the Moon is Illuminated
Apr 16
Full
Apr 22
Last Quarter
Apr 29
New
May 7
First Quarter
May 14
Full

Hourly Weather History & Observations

Time (BST) Temp. Windchill Dew Point Humidity Pressure Visibility Wind Dir Wind Speed Gust Speed Precip Events Conditions
12:00 AM 48 °F - 37 °F 57% 30.28 in 16 mi WSW 2.3 mph - -   Clear
12:50 AM 48.2 °F - 37.4 °F 66% 30.24 in - WNW 4.6 mph - N/A   Clear
1:00 AM 48 °F - 37 °F 56% 30.27 in 16 mi WNW 4.6 mph - -   Clear
1:50 AM 46.4 °F 40.7 °F 37.4 °F 71% 30.24 in - WSW 12.7 mph - N/A   Clear
2:00 AM 47 °F - 37 °F 59% 30.26 in 16 mi WSW 12.7 mph - -   Scattered Clouds
2:50 AM 46.4 °F 42.9 °F 37.4 °F 71% 30.24 in - WSW 6.9 mph - N/A   Clear
3:00 AM 46 °F - 37 °F 60% 30.25 in 16 mi WSW 6.9 mph - -   Partly Cloudy
3:50 AM 42.8 °F 41.1 °F 37.4 °F 81% 30.24 in - North 3.5 mph - N/A   Clear
4:00 AM 43 °F - 36 °F 70% 30.25 in 16 mi North 3.5 mph - -   Scattered Clouds
4:50 AM 44.6 °F 39.7 °F 35.6 °F 71% 30.24 in - SW 9.2 mph - N/A   Clear
5:00 AM 44 °F - 36 °F 66% 30.24 in 16 mi SW 9.2 mph - -   Partly Cloudy
5:50 AM 41.0 °F 39.0 °F 35.6 °F 81% 30.21 in - North 3.5 mph - N/A   Clear
6:00 AM 41 °F - 35 °F 73% 30.23 in 16 mi North 3.5 mph - -   Scattered Clouds
6:50 AM 42.8 °F 37.5 °F 35.6 °F 76% 30.21 in - SW 9.2 mph - N/A   Clear
7:00 AM 42 °F - 35 °F 70% 30.23 in 16 mi SW 9.2 mph - -   Clear
7:50 AM 48.2 °F - 37.4 °F 66% 30.21 in - WSW 11.5 mph - N/A   Clear
8:00 AM 49 °F - 37 °F 54% 30.23 in 19 mi WSW 11.5 mph - -   Partly Cloudy
8:50 AM 50.0 °F - 37.4 °F 62% 30.21 in - WSW 12.7 mph - N/A   Clear
9:00 AM 50 °F - 38 °F 53% 30.22 in 19 mi WSW 12.7 mph - -   Mostly Cloudy
9:50 AM 51.8 °F - 39.2 °F 62% 30.21 in - WSW 9.2 mph - N/A   Clear
10:00 AM 51 °F - 40 °F 55% 30.21 in 19 mi WSW 9.2 mph - -   Mostly Cloudy
10:50 AM 51.8 °F - 41.0 °F 67% 30.18 in - WSW 9.2 mph - N/A   Clear
11:00 AM 52 °F - 40 °F 54% 30.20 in 16 mi WSW 9.2 mph - -   Partly Cloudy
11:50 AM 53.6 °F - 41.0 °F 62% 30.18 in - WSW 11.5 mph - N/A   Clear
12:00 PM 54 °F - 40 °F 49% 30.19 in 19 mi WSW 11.5 mph - -   Mostly Cloudy
12:50 PM 53.6 °F - 39.2 °F 58% 30.15 in 6.2 mi WSW 17.3 mph - N/A   Overcast
1:00 PM 54 °F - 39 °F 47% 30.17 in 19 mi WSW 17.3 mph - -   Overcast
1:50 PM 57.2 °F - 37.4 °F 48% 30.15 in 6.2 mi SW 18.4 mph - N/A   Mostly Cloudy
2:00 PM 56 °F - 37 °F 36% 30.16 in 19 mi SW 18.4 mph - -   Scattered Clouds
2:50 PM 55.4 °F - 37.4 °F 51% 30.12 in 6.2 mi SW 21.9 mph - N/A   Mostly Cloudy
3:00 PM 56 °F - 38 °F 39% 30.13 in 22 mi SW 21.9 mph - -   Scattered Clouds
3:50 PM 55.4 °F - 39.2 °F 54% 30.09 in 6.2 mi SW 18.4 mph - N/A   Mostly Cloudy
4:00 PM 55 °F - 38 °F 42% 30.10 in 25 mi SW 18.4 mph - -   Scattered Clouds
4:50 PM 53.6 °F - 39.2 °F 58% 30.06 in 6.2 mi SW 13.8 mph - N/A   Mostly Cloudy
5:00 PM 54 °F - 39 °F 46% 30.08 in 28 mi SW 13.8 mph - -   Scattered Clouds
5:50 PM 57.2 °F - 37.4 °F 48% 30.04 in 6.2 mi SW 13.8 mph - N/A   Mostly Cloudy
6:00 PM 57 °F - 38 °F 37% 30.06 in 28 mi SW 13.8 mph - -   Scattered Clouds
6:50 PM 55.4 °F - 37.4 °F 51% 30.04 in 6.2 mi WSW 17.3 mph - N/A   Mostly Cloudy
7:00 PM 55 °F - 37 °F 39% 30.04 in 25 mi WSW 17.3 mph - -   Scattered Clouds
7:50 PM 53.6 °F - 39.2 °F 58% 30.04 in 6.2 mi West 13.8 mph - N/A   Mostly Cloudy
8:00 PM 53 °F - 38 °F 46% 30.04 in 22 mi West 13.8 mph - -   Mostly Cloudy
8:50 PM 51.8 °F - 39.2 °F 62% 30.01 in 6.2 mi West 6.9 mph - N/A   Mostly Cloudy
9:00 PM 52 °F - 40 °F 53% 30.03 in 19 mi West 6.9 mph - -   Mostly Cloudy
9:50 PM 50.0 °F - 41.0 °F 71% 29.98 in 6.2 mi WSW 15.0 mph - N/A   Overcast
10:00 PM 51 °F - 40 °F 57% 30.00 in 16 mi WSW 15.0 mph - - Rain Light Rain
10:50 PM 50.0 °F - 41.0 °F 71% 29.98 in 6.2 mi West 8.1 mph - N/A   Overcast
11:00 PM 50 °F - 42 °F 64% 29.99 in 12 mi West 8.1 mph - -   Overcast
11:50 PM 51.8 °F - 42.8 °F 71% 29.95 in 6.2 mi WSW 16.1 mph - N/A   Overcast